Vorticity
5 12 8 7 3 6 16 19 -3 13 13 -0 21 14 6 5 2 1 -4 -22 12 8 10 12 12 14 7 6 3 18 18 16 14 13 12 11 11 12 15 17 18 15 15 9
11 10 6 4 7 20 18 8 -17 39 -4 16 15 9 18 5 1 -3 -1 -16 9 10 12 12 15 10 2 5 1 4 9 10 11 11 11 11 10 9 9 9 11 16 21 16
4 8 2 6 15 24 3 2 8 25 9 15 18 12 -2 1 -3 -6 -8 -11 9 8 12 14 16 10 3 6 7 9 11 3 5 6 4 4 17 23 8 10 8 9 16 20
-3 10 1 10 9 14 6 21 34 24 11 4 -1 12 -7 5 11 -3 -1 -2 14 11 11 14 13 7 4 5 4 5 10 8 10 4 6 8 6 16 29 12 2 8 7 13
5 1 3 10 10 8 2 36 10 14 16 4 21 13 -4 -1 5 11 -4 11 9 11 13 14 12 7 5 10 17 16 8 11 5 12 14 9 9 8 16 22 17 11 12 10
3 -1 8 11 21 -6 18 49 8 8 11 7 -17 19 -25 8 -1 2 2 16 8 13 14 8 11 8 8 15 8 7 11 10 13 13 7 14 13 23 23 12 14 5 7 7
13 -5 14 5 17 -16 15 52 4 8 9 1 -8 24 -14 -6 -11 0 15 8 9 14 12 10 12 9 10 10 10 8 9 12 12 16 10 18 18 23 23 14 7 8 8 14
2 6 18 7 4 26 1 6 27 10 8 -11 13 15 -6 -14 -15 -1 13 6 10 10 11 11 11 8 11 11 9 8 10 11 16 13 11 18 20 9 16 23 10 7 13 19
11 -1 1 8 -5 29 -13 19 6 18 12 21 7 4 23 -22 -11 20 9 6 12 9 13 11 10 11 11 7 10 9 11 12 17 4 2 3 7 8 10 10 12 7 17 18
9 9 1 7 0 13 6 19 15 11 10 15 9 9 -12 -11 10 15 7 9 12 9 14 11 11 15 9 9 10 12 10 10 14 31 1 5 8 15 26 16 12 11 21 20
21 0 8 12 1 6 8 6 32 18 6 10 5 19 -16 -23 15 9 5 7 10 13 12 12 12 10 7 10 11 11 11 11 11 18 17 13 13 15 24 10 11 18 23 20
14 -4 16 8 1 2 4 1 9 19 -1 9 5 14 -7 8 14 7 4 8 10 16 13 9 15 8 8 10 11 10 12 11 10 13 19 12 15 15 21 10 8 21 16 14
9 -5 11 12 1 0 5 1 3 21 20 9 14 -23 -10 29 5 4 4 8 13 19 14 9 12 8 8 9 10 11 10 13 10 15 17 10 8 10 20 14 5 7 20 14
16 0 18 11 10 8 7 6 4 2 15 5 9 -15 20 16 5 2 4 7 14 18 14 11 8 7 8 9 10 10 11 14 11 11 18 16 8 20 28 19 20 7 9 19
13 1 15 14 7 16 7 5 5 6 7 16 9 -2 8 12 5 3 4 7 15 16 14 11 7 8 9 9 9 10 11 11 10 12 10 14 14 8 18 25 26 24 9 8
5 1 15 7 8 17 -5 4 4 7 -0 16 -4 14 19 14 6 2 5 6 13 16 15 11 7 7 9 7 8 9 10 10 10 9 10 8 12 17 12 9 11 18 20 21
8 13 22 8 10 13 9 1 3 8 11 14 3 10 12 17 8 2 5 5 13 17 13 10 7 7 8 7 7 9 9 10 11 10 9 9 9 7 5 8 9 10 13 17
7 15 18 8 16 12 -12 1 2 9 18 6 7 12 14 12 9 2 5 5 15 16 13 10 7 7 8 8 8 9 9 10 10 9 10 9 8 9 9 9 12 12 11 12
8 14 21 6 19 1 11 -6 5 16 24 -10 9 13 12 13 13 4 3 6 15 17 14 10 7 7 8 8 8 9 9 10 10 9 10 10 8 9 9 10 11 12 14 12
8 10 13 17 14 5 -13 -0 8 16 4 2 10 13 13 9 15 3 2 6 16 22 14 10 5 8 7 8 8 9 9 9 9 8 9 11 9 8 9 9 10 11 13 13
15 7 5 13 12 10 9 5 15 15 -23 9 11 13 14 11 7 4 6 8 15 21 14 13 5 8 8 8 8 9 9 10 9 9 10 11 9 8 8 7 7 12 14 14
14 19 10 13 12 21 -9 12 12 5 8 7 9 10 17 11 8 5 7 8 14 23 14 14 5 7 7 8 8 8 9 11 10 10 11 10 8 8 8 11 10 13 14 17
14 10 10 14 -3 7 9 10 7 9 9 6 8 11 15 12 10 6 6 6 13 23 13 14 7 7 7 7 8 9 9 11 11 11 11 9 7 6 6 9 11 11 17 15
6 9 8 18 3 10 11 10 8 9 8 6 8 8 16 12 12 6 5 8 13 21 15 16 10 6 7 7 8 8 9 10 11 12 10 7 6 6 7 9 12 9 12 15
10 8 6 11 16 12 13 9 9 9 8 6 6 9 15 13 12 6 5 6 12 19 18 16 12 6 7 7 8 9 9 9 11 11 8 7 7 7 7 9 9 9 8 11
13 8 11 10 13 12 11 9 9 9 8 6 6 9 12 12 13 8 6 6 10 18 22 14 17 5 6 6 8 9 9 10 10 10 8 7 7 7 7 9 8 10 9 9
Height
3184 3183 3179 3179 3178 3175 3172 3171 3170 3169 3167 3165 3162 3160 3157 3153 3151 3148 3142 3136 3128 3120 3112 3104 3095 3084 3076 3069 3059 3047 3038 3029 3020 3012 3005 2998 2993 2989 2985 2981 2975 2970 2966 2962
3184 3181 3181 3179 3177 3174 3171 3170 3168 3168 3163 3163 3160 3158 3157 3152 3150 3146 3140 3133 3122 3115 3108 3100 3090 3081 3073 3064 3055 3047 3038 3026 3017 3009 3001 2994 2987 2982 2976 2972 2968 2963 2957 2952
3183 3183 3181 3180 3176 3173 3170 3168 3163 3163 3160 3160 3158 3156 3154 3153 3151 3147 3140 3131 3123 3113 3102 3093 3085 3077 3070 3061 3052 3043 3033 3023 3015 3006 2998 2991 2984 2976 2969 2964 2959 2954 2950 2944
3184 3182 3182 3178 3174 3171 3167 3163 3159 3157 3158 3158 3157 3157 3155 3152 3148 3143 3134 3127 3119 3110 3100 3091 3081 3073 3066 3058 3049 3040 3030 3020 3011 3002 2993 2985 2975 2967 2962 2956 2953 2948 2942 2937
3186 3183 3180 3176 3173 3170 3167 3160 3158 3156 3155 3156 3158 3156 3152 3147 3141 3136 3131 3124 3116 3107 3097 3087 3078 3070 3063 3056 3045 3036 3026 3017 3008 2999 2990 2981 2972 2963 2955 2950 2945 2941 2935 2929
3184 3183 3180 3177 3174 3171 3167 3159 3158 3156 3155 3156 3155 3155 3151 3146 3142 3135 3129 3123 3113 3104 3095 3085 3077 3069 3062 3054 3043 3034 3023 3014 3005 2994 2987 2978 2967 2958 2950 2945 2939 2934 2928 2921
3183 3181 3180 3179 3175 3172 3168 3160 3158 3159 3157 3156 3153 3152 3153 3148 3144 3137 3127 3119 3112 3102 3092 3081 3073 3066 3060 3050 3041 3030 3020 3011 3001 2992 2984 2974 2963 2954 2946 2939 2933 2927 2920 2913
3184 3180 3181 3180 3176 3173 3169 3166 3166 3166 3165 3158 3154 3152 3150 3147 3143 3137 3130 3122 3111 3100 3089 3080 3071 3064 3056 3048 3039 3028 3019 3008 2999 2991 2982 2972 2962 2953 2945 2937 2930 2923 2915 2908
3184 3184 3183 3181 3179 3177 3172 3169 3169 3166 3164 3162 3154 3151 3147 3145 3141 3132 3126 3116 3106 3096 3086 3078 3071 3064 3056 3048 3037 3027 3017 3007 2998 2989 2980 2971 2961 2952 2943 2935 2928 2920 2912 2904
3184 3184 3183 3182 3180 3178 3175 3173 3169 3168 3171 3166 3152 3149 3146 3139 3132 3128 3121 3112 3104 3095 3085 3077 3070 3064 3057 3048 3037 3028 3017 3006 2997 2988 2978 2970 2960 2950 2941 2933 2926 2918 2910 2903
3184 3184 3185 3182 3180 3177 3176 3173 3172 3171 3171 3171 3165 3148 3146 3142 3135 3127 3121 3113 3104 3094 3085 3076 3070 3064 3056 3047 3038 3028 3018 3009 2998 2987 2978 2970 2960 2949 2940 2933 2925 2917 2911 2904
3185 3183 3181 3182 3180 3178 3176 3175 3173 3171 3170 3167 3165 3152 3148 3145 3137 3130 3123 3114 3105 3095 3085 3076 3069 3063 3056 3048 3040 3028 3019 3009 2998 2988 2978 2969 2960 2950 2941 2933 2926 2919 2913 2907
3185 3183 3181 3180 3182 3178 3176 3175 3172 3169 3167 3165 3164 3155 3150 3143 3135 3130 3122 3113 3104 3094 3086 3076 3071 3064 3057 3049 3039 3030 3020 3011 3002 2991 2981 2972 2962 2952 2942 2934 2928 2922 2916 2911
3185 3183 3181 3181 3180 3179 3176 3173 3171 3169 3166 3162 3158 3150 3144 3139 3133 3128 3119 3112 3103 3094 3085 3077 3071 3065 3058 3051 3041 3033 3024 3016 3005 2995 2985 2975 2965 2954 2944 2936 2930 2924 2919 2913
3184 3182 3180 3179 3178 3176 3175 3173 3170 3167 3164 3160 3156 3149 3143 3138 3130 3125 3119 3112 3101 3093 3085 3077 3072 3067 3061 3053 3045 3036 3028 3019 3008 3000 2990 2979 2970 2961 2952 2941 2933 2927 2922 2915
3183 3181 3178 3177 3176 3175 3173 3171 3169 3166 3161 3157 3153 3149 3142 3137 3131 3127 3119 3108 3099 3092 3086 3078 3073 3068 3062 3054 3046 3039 3031 3022 3014 3005 2995 2984 2976 2967 2958 2949 2940 2934 2926 2919
3183 3180 3177 3176 3175 3173 3173 3171 3168 3164 3159 3155 3150 3145 3138 3136 3130 3124 3117 3109 3099 3092 3086 3079 3074 3069 3063 3056 3049 3042 3035 3027 3020 3011 3001 2990 2982 2974 2965 2958 2949 2940 2932 2924
3181 3179 3177 3175 3174 3174 3171 3169 3166 3161 3156 3153 3149 3144 3138 3133 3129 3123 3116 3107 3100 3092 3086 3081 3075 3072 3066 3060 3054 3047 3039 3032 3024 3016 3007 2998 2989 2981 2973 2965 2956 2948 2939 2930
3181 3179 3176 3175 3172 3171 3168 3167 3164 3159 3155 3151 3147 3142 3137 3133 3130 3125 3118 3111 3100 3094 3088 3082 3078 3073 3068 3062 3056 3050 3043 3037 3029 3020 3012 3004 2995 2988 2980 2971 2963 2955 2946 2937
3180 3178 3177 3173 3171 3169 3167 3165 3162 3157 3153 3149 3144 3139 3134 3131 3127 3122 3115 3109 3103 3095 3090 3083 3079 3076 3070 3065 3059 3054 3047 3041 3033 3024 3017 3011 3003 2995 2987 2978 2970 2962 2953 2945
3179 3176 3174 3171 3169 3168 3166 3163 3161 3158 3160 3148 3143 3138 3133 3129 3125 3121 3116 3111 3102 3095 3091 3085 3081 3078 3072 3068 3063 3057 3051 3045 3037 3030 3024 3018 3011 3002 2994 2987 2979 2971 2962 2954
3177 3175 3173 3170 3168 3167 3164 3162 3160 3159 3153 3147 3142 3137 3133 3130 3126 3122 3116 3110 3101 3095 3092 3087 3082 3079 3074 3070 3066 3060 3055 3049 3043 3037 3031 3025 3018 3010 3004 2997 2989 2981 2972 2962
3175 3175 3173 3171 3168 3164 3162 3160 3157 3155 3151 3146 3141 3137 3133 3129 3126 3122 3116 3109 3102 3096 3091 3087 3083 3080 3076 3073 3068 3064 3059 3054 3049 3044 3038 3032 3025 3019 3013 3006 2998 2990 2980 2971
3172 3170 3169 3167 3164 3162 3160 3158 3156 3153 3150 3145 3140 3136 3132 3129 3125 3121 3116 3109 3102 3097 3092 3089 3085 3082 3079 3075 3071 3067 3062 3059 3055 3050 3044 3038 3032 3025 3020 3014 3007 2998 2988 2980
3170 3167 3165 3164 3161 3159 3158 3156 3154 3151 3149 3144 3139 3135 3131 3128 3124 3120 3114 3108 3103 3097 3092 3090 3086 3082 3080 3077 3074 3070 3067 3063 3060 3054 3049 3044 3038 3032 3026 3021 3014 3005 2997 2990
3166 3165 3163 3160 3158 3156 3155 3153 3151 3150 3147 3143 3139 3134 3130 3127 3123 3119 3114 3109 3102 3098 3094 3090 3088 3084 3082 3079 3076 3073 3070 3067 3064 3060 3055 3049 3044 3039 3033 3027 3021 3014 3008 3001